International Virtual Aviation Organisation

Eastern Europe and Northern Asia MCD

 

Карточка аэропорта USTR

Внимание!
Информация на этой странице в стадии наполнения.
Если вы не увидели какой-то информации, или заметили неточность - пожалуйста сообщите нам!
Спасибо!
Команда RU-STAFF
Название аэропортаРощино
Название аэропорта (англ.)Roshschino
Превышение378 ft. (115.2 m.)
Координаты57°10.098', 65°19.002'
Высота перехода700m
Эшелон переходаFL040
Коды ответчика5101-5137
Зона ОрВДТюмень РПИ (USTV)
Данные METARUSTR 121130Z 31005MPS 280V340 CAVOK 15/M03 Q1032 R30/CLRD65 R21/CLRD65 NOSIG
Проноз погоды (TAF)USTR 121100Z 1212/1312 31005G11MPS 9999 SCT020 TEMPO 1212/1221 33004MPS BECMG 1221/1222 29003MPS TEMPO 1222/1303 4000 BR BECMG 1306/1308 26006MPS
NOTAMshow/hide NOTAM
AWOS   TABLE

Информация о ВПП

ВПП Длина ВПП (м.) Покрытие Курс ВПП Частота ILS
033003Асфальтобетон34108.3
213003Асфальтобетон214110.7
122704Асфальтобетон121 
302704Асфальтобетон301 

Диспетчерские позиции

Позывной Наименование органа УВД Частота
USTR_GNDТюмень-Руление119.000
USTR_R_APPТюмень-Круг126.100
USTR_TWRТюмень-Старт118.200



Спутниковое изображение